• In Uzbekistan
  • List of Countries
  • For 7 days
  • Water Temperature
  • Satellite Maps
  • Weather Map
  • Weather Widgets
  • user-avatar
    Login

    Hourly Weather Korfu

    Today, 23 August, Wednesday

    Time Temperature Precipitation Wind Pressure Humidity
    00:00 +22°C° 0 mm 5 mps 757 mmHg 45%
    01:00 +22°C° 0 mm 4 mps 757 mmHg 44%
    02:00 +22°C° 0 mm 4 mps 757 mmHg 44%
    03:00 +22°C° 0 mm 4 mps 757 mmHg 43%
    04:00 +21°C° 0 mm 4 mps 757 mmHg 43%
    05:00 +24°C° 0 mm 3 mps 757 mmHg 42%
    06:00 +25°C° 0 mm 3 mps 757 mmHg 40%
    07:00 +26°C° 0 mm 3 mps 758 mmHg 39%
    08:00 +28°C° 0 mm 3 mps 758 mmHg 41%
    09:00 +29°C° 0 mm 3 mps 758 mmHg 42%
    10:00 +31°C° 0 mm 3 mps 758 mmHg 44%
    11:00 +31°C° 0 mm 3 mps 758 mmHg 42%
    12:00 +33°C° 0 mm 4 mps 758 mmHg 41%
    13:00 +33°C° 0 mm 4 mps 758 mmHg 40%
    14:00 +33°C° 0 mm 4 mps 758 mmHg 40%
    15:00 +33°C° 0 mm 5 mps 758 mmHg 41%
    16:00 +32°C° 0 mm 5 mps 757 mmHg 42%
    17:00 +30°C° 0 mm 5 mps 758 mmHg 45%
    18:00 +28°C° 0 mm 5 mps 758 mmHg 49%
    19:00 +26°C° 0 mm 5 mps 758 mmHg 53%
    20:00 +25°C° 0 mm 5 mps 758 mmHg 52%
    21:00 +25°C° 0 mm 5 mps 758 mmHg 52%
    22:00 +23°C° 0 mm 4 mps 759 mmHg 51%
    23:00 +23°C° 0 mm 4 mps 759 mmHg 51%

    Tomorrow, 24 August, Thursday

    Time Temperature Precipitation Wind Pressure Humidity
    00:00 +23°C° 0 mm 4 mps 759 mmHg 50%
    01:00 +22°C° 0 mm 3 mps 759 mmHg 50%
    02:00 +22°C° 0 mm 3 mps 759 mmHg 50%
    03:00 +22°C° 0 mm 3 mps 759 mmHg 50%
    04:00 +22°C° 0 mm 3 mps 759 mmHg 50%
    05:00 +24°C° 0 mm 3 mps 759 mmHg 48%
    06:00 +25°C° 0 mm 3 mps 759 mmHg 46%
    07:00 +27°C° 0 mm 3 mps 760 mmHg 43%
    08:00 +29°C° 0 mm 3 mps 760 mmHg 39%
    09:00 +31°C° 0 mm 2 mps 760 mmHg 35%
    10:00 +34°C° 0 mm 2 mps 760 mmHg 31%
    11:00 +35°C° 0 mm 3 mps 760 mmHg 30%
    12:00 +35°C° 0 mm 4 mps 760 mmHg 28%
    13:00 +36°C° 0 mm 4 mps 760 mmHg 26%
    14:00 +35°C° 0 mm 5 mps 759 mmHg 27%
    15:00 +35°C° 0 mm 5 mps 759 mmHg 28%
    16:00 +35°C° 0 mm 5 mps 759 mmHg 28%
    17:00 +33°C° 0 mm 5 mps 759 mmHg 33%
    18:00 +29°C° 0 mm 5 mps 759 mmHg 37%
    19:00 +27°C° 0 mm 5 mps 759 mmHg 42%
    20:00 +27°C° 0 mm 4 mps 760 mmHg 42%
    21:00 +26°C° 0 mm 4 mps 760 mmHg 42%
    22:00 +26°C° 0 mm 4 mps 760 mmHg 42%
    23:00 +25°C° 0 mm 3 mps 760 mmHg 42%

    Day after tomorrow, 25 August, Friday

    Time Temperature Precipitation Wind Pressure Humidity
    00:00 +25°C° 0 mm 3 mps 760 mmHg 43%
    01:00 +25°C° 0 mm 3 mps 760 mmHg 43%
    02:00 +24°C° 0 mm 3 mps 760 mmHg 43%
    03:00 +24°C° 0 mm 3 mps 760 mmHg 43%
    04:00 +24°C° 0 mm 2 mps 760 mmHg 43%
    05:00 +25°C° 0 mm 2 mps 760 mmHg 40%
    06:00 +26°C° 0 mm 2 mps 760 mmHg 38%
    07:00 +27°C° 0 mm 2 mps 760 mmHg 35%
    08:00 +30°C° 0 mm 2 mps 760 mmHg 31%
    09:00 +32°C° 0 mm 2 mps 760 mmHg 26%
    10:00 +35°C° 0 mm 1 mps 760 mmHg 21%
    11:00 +36°C° 0 mm 2 mps 760 mmHg 20%
    12:00 +37°C° 0 mm 2 mps 760 mmHg 20%
    13:00 +37°C° 0 mm 3 mps 760 mmHg 19%
    14:00 +37°C° 0 mm 3 mps 759 mmHg 21%
    15:00 +36°C° 0 mm 3 mps 759 mmHg 22%
    16:00 +36°C° 0 mm 4 mps 759 mmHg 24%
    17:00 +33°C° 0 mm 3 mps 759 mmHg 29%
    18:00 +30°C° 0 mm 3 mps 759 mmHg 34%
    19:00 +28°C° 0 mm 3 mps 759 mmHg 38%
    20:00 +27°C° 0 mm 3 mps 759 mmHg 38%
    21:00 +27°C° 0 mm 3 mps 760 mmHg 37%
    22:00 +26°C° 0 mm 3 mps 760 mmHg 37%
    23:00 +26°C° 0 mm 3 mps 760 mmHg 37%

    26 August, Saturday

    Time Temperature Precipitation Wind Pressure Humidity
    00:00 +25°C° 0 mm 2 mps 759 mmHg 37%
    01:00 +25°C° 0 mm 2 mps 759 mmHg 37%
    02:00 +24°C° 0 mm 2 mps 759 mmHg 37%
    03:00 +24°C° 0 mm 2 mps 759 mmHg 37%
    04:00 +23°C° 0 mm 2 mps 759 mmHg 38%
    05:00 +25°C° 0 mm 2 mps 759 mmHg 37%
    06:00 +26°C° 0 mm 2 mps 759 mmHg 35%
    07:00 +27°C° 0 mm 2 mps 759 mmHg 34%
    08:00 +30°C° 0 mm 2 mps 759 mmHg 30%
    09:00 +33°C° 0 mm 1 mps 759 mmHg 26%
    10:00 +35°C° 0 mm 1 mps 759 mmHg 22%
    11:00 +37°C° 0 mm 2 mps 759 mmHg 22%
    12:00 +37°C° 0 mm 2 mps 758 mmHg 21%
    13:00 +38°C° 0 mm 3 mps 758 mmHg 21%
    14:00 +37°C° 0 mm 3 mps 758 mmHg 22%
    15:00 +37°C° 0 mm 3 mps 758 mmHg 23%
    16:00 +36°C° 0 mm 3 mps 757 mmHg 24%
    17:00 +34°C° 0 mm 3 mps 758 mmHg 29%
    18:00 +31°C° 0 mm 3 mps 758 mmHg 34%
    19:00 +28°C° 0 mm 3 mps 758 mmHg 38%
    20:00 +28°C° 0 mm 3 mps 758 mmHg 38%
    21:00 +27°C° 0 mm 3 mps 758 mmHg 38%
    22:00 +27°C° 0 mm 2 mps 758 mmHg 38%
    23:00 +26°C° 0 mm 2 mps 758 mmHg 38%

    27 August, Sunday

    Time Temperature Precipitation Wind Pressure Humidity
    00:00 +26°C° 0 mm 2 mps 758 mmHg 39%
    01:00 +26°C° 0 mm 2 mps 758 mmHg 39%
    02:00 +25°C° 0 mm 2 mps 758 mmHg 40%
    03:00 +25°C° 0 mm 2 mps 757 mmHg 40%
    04:00 +25°C° 0 mm 2 mps 757 mmHg 40%
    05:00 +26°C° 0 mm 2 mps 757 mmHg 38%
    06:00 +27°C° 0 mm 2 mps 757 mmHg 36%
    07:00 +29°C° 0 mm 2 mps 758 mmHg 35%
    08:00 +31°C° 0 mm 2 mps 757 mmHg 31%
    09:00 +34°C° 0 mm 1 mps 757 mmHg 27%
    10:00 +36°C° 0 mm 1 mps 757 mmHg 23%
    11:00 +37°C° 0 mm 2 mps 757 mmHg 23%
    12:00 +38°C° 0 mm 3 mps 756 mmHg 22%
    13:00 +38°C° 0 mm 4 mps 756 mmHg 22%
    14:00 +38°C° 0 mm 4 mps 756 mmHg 23%
    15:00 +37°C° 0 mm 4 mps 756 mmHg 25%
    16:00 +37°C° 0 mm 4 mps 755 mmHg 26%
    17:00 +34°C° 0 mm 4 mps 756 mmHg 31%
    18:00 +32°C° 0 mm 4 mps 756 mmHg 37%
    19:00 +29°C° 0 mm 4 mps 756 mmHg 42%
    20:00 +28°C° 0 mm 3 mps 756 mmHg 41%
    21:00 +28°C° 0 mm 3 mps 756 mmHg 41%
    22:00 +27°C° 0 mm 3 mps 756 mmHg 40%
    23:00 +27°C° 0 mm 3 mps 756 mmHg 40%

    28 August, Monday

    Time Temperature Precipitation Wind Pressure Humidity
    00:00 +27°C° 0 mm 3 mps 756 mmHg 39%
    01:00 +26°C° 0 mm 3 mps 756 mmHg 39%
    02:00 +26°C° 0 mm 3 mps 756 mmHg 39%
    03:00 +26°C° 0 mm 3 mps 755 mmHg 39%
    04:00 +25°C° 0 mm 3 mps 755 mmHg 39%
    05:00 +27°C° 0 mm 3 mps 755 mmHg 37%
    06:00 +28°C° 0 mm 3 mps 756 mmHg 35%
    07:00 +30°C° 0 mm 2 mps 756 mmHg 34%
    08:00 +32°C° 0 mm 2 mps 756 mmHg 30%
    09:00 +35°C° 0 mm 2 mps 755 mmHg 27%
    10:00 +37°C° 0 mm 2 mps 755 mmHg 23%
    11:00 +38°C° 0 mm 3 mps 755 mmHg 23%
    12:00 +38°C° 0 mm 4 mps 755 mmHg 22%
    13:00 +40°C° 0 mm 5 mps 754 mmHg 22%
    14:00 +39°C° 0 mm 5 mps 754 mmHg 24%
    15:00 +39°C° 0 mm 5 mps 754 mmHg 26%
    16:00 +38°C° 0 mm 6 mps 754 mmHg 28%
    17:00 +35°C° 0 mm 6 mps 754 mmHg 34%
    18:00 +33°C° 0 mm 6 mps 754 mmHg 40%
    19:00 +29°C° 0 mm 6 mps 754 mmHg 45%
    20:00 +29°C° 0 mm 5 mps 754 mmHg 45%
    21:00 +28°C° 0 mm 5 mps 754 mmHg 46%
    22:00 +28°C° 0 mm 4 mps 754 mmHg 46%
    23:00 +27°C° 0 mm 4 mps 754 mmHg 45%
    Show more